Muskegon, MI

5:23 PM EST on December 07, 2019 (GMT -0500)
Muskegon County

Weather History for KMKG - November, 2019

Change the Weather History Date:

Thursday, November 14, 2019

  Actual Average Record
Temperature  
Mean Temperature 32 °F 41 °F  
Max Temperature 33 °F 47 °F 64 °F (1956)
Min Temperature 30 °F 35 °F 15 °F (1995)
Degree Days  
Heating Degree Days 33 24  
Month to date heating degree days 424 306  
Since 1 July heating degree days 930 929  
Cooling Degree Days 0 0  
Month to date cooling degree days 0 0  
Year to date cooling degree days 640 566  
Moisture  
Dew Point 22 °F    
Average Humidity 67    
Maximum Humidity 72    
Minimum Humidity 61    
Precipitation  
Precipitation 0.01 in 0.12 in 1.76 in (1957)
Month to date precipitation 1.48 1.60  
Year to date precipitation 42.30 29.18  
Snow  
Snow 0.20 in 0.20 in 16.00 in (1908)
Month to date snowfall 10.9 1.4  
Since 1 July snowfall 10.9 1.6  
Since 1 September snowfall 10.9 1.6  
Snow Depth 4.00 in    
Sea Level Pressure  
Sea Level Pressure 30.19 in    
Wind  
Wind Speed 9 mph (West)    
Max Wind Speed 18 mph    
Max Gust Speed 28 mph    
Visibility 9 miles    
Events Snow    
T = Trace of Precipitation, MM = Missing Value Source: NWS Daily Summary

Daily Weather History Graph

Daily Weather History Graph

Search for Another Location

Airport or City:

Astronomy

Nov. 14, 2019 Rise Set
Actual Time 7:36 AM EST 5:22 PM EST
Civil Twilight 7:05 AM EST 5:52 PM EST
Nautical Twilight 6:31 AM EST 6:26 PM EST
Astronomical Twilight 5:57 AM EST 7:00 PM EST
Moon 7:05 PM EST (11/14) 9:33 AM EST (11/14)
Length of Visible Light 10h 46m
Length of Day
9h 45m
Waning Gibbous, 95% of the Moon is Illuminated
Nov 14
Waning Gibbous
Nov 19
Last Quarter
Nov 26
New
Dec 4
First Quarter
Dec 12
Full

Hourly Weather History & Observations

Time (EST) Temp. Windchill Dew Point Humidity Pressure Visibility Wind Dir Wind Speed Gust Speed Precip Events Conditions
12:55 AM 30.0 °F 20.5 °F 23.0 °F 75% 30.08 in 6.0 mi WSW 11.5 mph - 0.00 in Snow Light Snow
1:55 AM 30.0 °F 21.7 °F 21.9 °F 72% 30.08 in 8.0 mi West 9.2 mph - 0.01 in Snow Light Snow
3:55 AM 30.0 °F 23.2 °F 23.0 °F 75% 30.09 in 7.0 mi WNW 6.9 mph - 0.00 in Snow Light Snow
4:55 AM 30.9 °F 25.2 °F 23.0 °F 72% 30.10 in 10.0 mi WNW 5.8 mph - 0.00 in   Overcast
5:55 AM 30.9 °F 26.2 °F 23.0 °F 72% 30.12 in 10.0 mi WNW 4.6 mph - N/A   Overcast
6:55 AM 30.9 °F 25.2 °F 23.0 °F 72% 30.13 in 10.0 mi WNW 5.8 mph - N/A   Overcast
7:55 AM 30.9 °F 25.2 °F 21.9 °F 69% 30.15 in 10.0 mi NW 5.8 mph - N/A   Overcast
8:55 AM 30.9 °F 27.5 °F 23.0 °F 72% 30.17 in 10.0 mi WNW 3.5 mph - N/A   Overcast
9:55 AM 30.0 °F 26.5 °F 24.1 °F 79% 30.20 in 8.0 mi ESE 3.5 mph - 0.00 in Snow Light Snow
10:55 AM 32.0 °F 26.4 °F 21.9 °F 66% 30.21 in 10.0 mi WNW 5.8 mph - 0.00 in   Overcast
11:55 AM 32.0 °F 25.6 °F 21.9 °F 66% 30.21 in 10.0 mi WNW 6.9 mph - N/A   Overcast
12:55 PM 33.1 °F 26.9 °F 21.0 °F 61% 30.21 in 10.0 mi West 6.9 mph - N/A   Overcast
1:55 PM 32.0 °F 24.8 °F 21.9 °F 66% 30.20 in 10.0 mi West 8.1 mph - N/A   Overcast
2:55 PM 32.0 °F 23.6 °F 21.9 °F 66% 30.20 in 10.0 mi West 10.4 mph - N/A   Overcast
3:55 PM 30.9 °F 22.2 °F 21.0 °F 67% 30.22 in 10.0 mi West 10.4 mph - N/A   Overcast
4:55 PM 30.9 °F 21.2 °F 21.0 °F 67% 30.23 in 10.0 mi West 12.7 mph - N/A   Overcast
5:55 PM 30.9 °F 23.5 °F 21.9 °F 69% 30.24 in 10.0 mi West 8.1 mph 18.4 mph N/A   Overcast
6:55 PM 32.0 °F 23.6 °F 21.9 °F 66% 30.25 in 10.0 mi SW 10.4 mph 19.6 mph N/A   Overcast
7:55 PM 32.0 °F 22.5 °F 21.9 °F 66% 30.25 in 10.0 mi WSW 12.7 mph 21.9 mph N/A   Overcast
8:55 PM 30.9 °F 20.2 °F 21.9 °F 69% 30.25 in 10.0 mi WSW 15.0 mph 21.9 mph N/A   Overcast
9:55 PM 32.0 °F 21.6 °F 23.0 °F 69% 30.25 in 10.0 mi WSW 15.0 mph - N/A   Overcast
10:55 PM 30.9 °F 20.2 °F 23.0 °F 72% 30.25 in 10.0 mi WSW 15.0 mph - N/A   Overcast
11:55 PM 32.0 °F 21.2 °F 24.1 °F 73% 30.26 in 10.0 mi WSW 16.1 mph 27.6 mph N/A   Overcast